Venezia / Tessera - Marco Polo Airport

Jump to: basic info | weather | frequencies | runways | comments

Related pages: nearby airports | nearby navaids | notams | map

Basic information (top)

Codes: VCE LIPZ
Location: lon 45.505299, lat 12.351900, elev 7 ft / 2 m msl
Status: large_airport
Scheduled airline service: yes
Links: Wikipedia Mobile

Weather (top)

Current conditions (rec'd 2014/08/31 09:50Z):

LIPZ 310950Z 06008KT 9999 FEW070 25/14 Q1013

Airport forecast (rec'd 2014/08/31 06:00Z):

TAF LIPZ 310500Z 3106/0112 VRB05KT 9999 FEW030 
      TEMPO 3118/3122 3000 SHRA 
      BECMG 3120/3122 04015KT 
      TEMPO 3122/0106 TSRA

Frequencies (top)

Verify before use: may be inaccurate or out of date.

APP: 118.9 MHz (APP)
ATIS: 122.225 MHz (ATIS)
GND: 121.7 MHz (GND)
TWR: 120.2 MHz (TWR)

Runways (top)

04L/22R: 9,121 x 148 ft (2,780 x 45 m) — paved — lighted — threshold 04L displaced 308 ft (94 m)

04R/22L: 10,827 x 148 ft (3,300 x 45 m) — paved — lighted

Latest comments (top)

flight cancellation dublin: Trying to find reason for today flight ... [read]

More... (top)

See also NOTAMs and nearby airports and navaids, or visit the Venezia / Tessera - Marco Polo Airport page at the main OurAirports website..